DW3383 Weather Reports


Display with metric or nautical units.
time (UTC)temp
F
wind
direction
speed
MPH
gust
MPH
rain 1hr
in
rain 24hr
in
rain mn
in
humidity
%
barometer
mb
20260505180308 55 350 1.0 6.0 0.00 0.00 0.00 60 1003.5
20260505170807 53 52 1.0 5.0 0.00 0.00 0.00 62 1003.5
20260505170307 53 24 1.0 7.0 0.00 0.00 0.00 61 1003.5
20260505160805 49 297 3.0 6.0 0.00 0.00 0.00 66 1003.6
20260505160306 49 334 3.0 7.0 0.00 0.00 0.00 66 1003.7
20260505150806 48 23 2.0 5.0 0.00 0.00 0.00 66 1004.1
20260505150307 48 23 2.0 6.0 0.00 0.00 0.00 65 1004.1
20260505130306 48 36 2.0 7.0 0.00 0.00 0.00 66 1004.2
20260505120806 48 54 3.0 6.0 0.00 0.00 0.00 66 1005.1
20260505120307 48 14 2.0 7.0 0.00 0.00 0.00 66 1005.3
20260505110807 50 30 3.0 5.0 0.00 0.00 0.00 64 1005.9
20260505100807 51 298 3.0 8.0 0.00 0.00 0.00 62 1006.4
20260505100306 51 338 4.0 8.0 0.00 0.00 0.00 62 1006.4
20260505090807 52 35 3.0 6.0 0.00 0.00 0.00 61 1006.7
20260505090307 52 10 2.0 8.0 0.00 0.00 0.00 60 1006.8
20260505080806 51 355 3.0 9.0 0.00 0.00 0.00 61 1007.4
20260505080306 51 275 3.0 9.0 0.00 0.00 0.00 62 1007.5
20260505070308 52 328 3.0 7.0 0.00 0.00 0.00 62 1008.7
20260505060805 53 324 2.0 7.0 0.00 0.00 0.00 61 1009.1
20260505060306 52 332 2.0 7.0 0.00 0.00 0.00 61 1009.1
20260505050805 54 156 1.0 3.0 0.00 0.00 0.00 59 1009.7
20260505040805 57 13 0.0 2.0 0.00 0.00 0.00 56 1010.1
20260505040306 58 354 0.0 5.0 0.00 0.00 0.00 55 1010.1
20260505030806 60 29 0.0 2.0 0.00 0.00 0.00 53 1010.4
20260505030305 60 23 1.0 6.0 0.00 0.00 0.00 52 1010.3
20260505020807 62 75 1.0 3.0 0.00 0.00 0.00 51 1011.1
20260505010806 63 99 2.0 7.0 0.00 0.00 0.00 50 1011.6
20260505000805 63 81 2.0 5.0 0.00 0.00 0.00 49 1012.6
20260505000305 63 77 3.0 9.0 0.00 0.00 0.00 49 1012.7
20260504230805 64 36 2.0 7.0 0.00 0.00 0.00 49 1013.4
20260504230305 63 67 2.0 9.0 0.00 0.00 0.00 50 1013.4
20260504220806 62 39 2.0 5.0 0.00 0.00 0.00 50 1014.4
20260504220306 61 30 2.0 8.0 0.00 0.00 0.00 52 1014.5
20260504210805 59 316 1.0 5.0 0.00 0.00 0.00 54 1015.4
20260504210306 59 41 2.0 6.0 0.00 0.00 0.00 54 1015.4
20260504200805 57 308 1.0 2.0 0.00 0.00 0.00 55 1015.9
20260504200307 56 15 1.0 7.0 0.00 0.00 0.00 55 1016.0
20260504190308 53 69 1.0 8.0 0.00 0.00 0.00 59 1016.6